Location: Amon Carter Post Office
(32.8281°N, 97.0484°W)
Time: 11:47:31
(UTC+00:00)

Sich 1 - Pass Details

Date: 06 July 2022
Orbit: 593 x 623 km, 82.5° (Epoch: 09 August)

Event Time Altitude Azimuth Distance (km) Brightness Sun altitude
Exits shadow 09:31:02 40° 177° (S) 884 3.5 -20.1°
Maximum altitude 09:32:31 81° 97° (E) 612 3.0 -19.9°
Drops below altitude 10° 09:36:48 10° 9° (N) 1,939 6.4 -19.3°
Sets 09:39:00 0° 8° (N) 2,842 7.3 -19.0°
